[[{"header":{"parameterUnit":"m.s-1","parameterCategory":1,"la1":30.2991,"la2":30.254,"lo1":-89.0895,"lo2":-89.0444,"dy":0.0017,"dx":0.0017,"nx":28,"ny":28,"refTime":"2024-07-02T03:00:00:Z","depth":0,"parameterNumber":2,"parameterNumberName":"U-component_of_WINDS"},"data":[0,0,0,0,0,0,0,0,0,0,0,0,0,0,0,0,0,0,0,0,0,0,0,0,0,0,0,0,0,0,0,0,0,0,0,0,0,0,0,0,0,0,0,0,0,0,0,0,0,0,0,0,0,0,0,0,0,0,-0.1863,-0.1862,0,-0.1801,-0.18,-0.1799,-0.177,-0.177,-0.177,-0.177,-0.1707,-0.1705,-0.1703,0,0,0,0,0,0,0,0,0,0,0,0,0,-0.1959,-0.1957,-0.1863,-0.1862,-0.1862,-0.1801,-0.18,-0.1799,-0.177,-0.177,-0.177,-0.177,-0.1707,-0.1705,-0.1703,0,0,0,0,0,0,0,0,0,0,0,0,0,-0.1909,-0.1957,-0.1863,-0.184,-0.1837,-0.1801,-0.18,-0.1799,-0.177,-0.177,-0.177,-0.177,-0.1708,-0.1705,-0.1703,-0.1685,0,0,-0.1695,-0.1694,0,0,0,0,0,0,0,0,-0.1912,-0.1905,-0.1844,-0.1841,-0.1838,-0.1793,-0.181,-0.1761,-0.177,-0.1795,-0.177,-0.177,-0.1735,-0.1731,-0.1719,-0.1682,-0.168,-0.1695,-0.1693,-0.1692,-0.1691,0,0,0,0,0,0,0,-0.1915,-0.1908,-0.1838,-0.1843,-0.184,-0.1833,-0.1826,-0.1801,-0.1766,-0.1793,-0.1791,-0.1784,-0.1734,-0.1721,-0.1717,-0.1679,-0.1695,-0.1692,-0.1691,-0.169,-0.1625,-0.1625,0,0,0,0,0,0,-0.1922,-0.1911,-0.184,-0.1836,-0.1876,-0.1831,-0.1823,-0.1808,-0.1766,-0.176,-0.1784,-0.1783,-0.1726,-0.172,-0.1715,-0.1692,-0.1692,-0.169,-0.1688,-0.1626,-0.1625,-0.1625,0,0,0,0,0,0,-0.1925,-0.1916,-0.1843,-0.1873,-0.1863,-0.1829,-0.1812,-0.1806,-0.1794,-0.1759,-0.1753,-0.1777,-0.1725,-0.1718,-0.1693,-0.1689,-0.1688,-0.1686,-0.1626,-0.1626,-0.1625,-0.1645,0,0,0,0,0,0,-0.1927,-0.1917,-0.191,-0.1873,-0.1862,-0.1822,-0.1812,-0.1805,-0.1789,-0.1787,-0.1751,-0.1745,-0.1725,-0.1697,-0.169,-0.1685,-0.1684,-0.1626,-0.1626,-0.1625,-0.1645,-0.1646,-0.1647,0,0,0,0,0,-0.1931,-0.1918,-0.191,-0.1901,-0.1852,-0.1822,-0.1815,-0.1792,-0.1789,-0.1782,-0.1759,-0.1746,-0.1691,-0.1695,-0.1687,-0.1681,-0.1626,-0.1626,-0.1625,-0.1644,-0.1646,-0.1647,0,0,0,0,0,0,-0.1956,-0.1913,-0.1903,-0.1878,-0.1854,-0.1817,-0.1807,-0.1794,-0.177,-0.1769,-0.1742,-0.1734,-0.1711,-0.1693,-0.1699,-0.1662,-0.1657,-0.1655,-0.1674,-0.1675,-0.1676,-0.1681,-0.1682,0,0,0,0,0,-0.1958,-0.1937,-0.1901,-0.1882,-0.1871,-0.1841,-0.1827,-0.1811,-0.1785,-0.1775,-0.1751,-0.1726,-0.1703,-0.1688,-0.1665,-0.1642,-0.1634,-0.1635,-0.1636,-0.1637,-0.1635,-0.1622,-0.1622,-0.1624,-0.1624,-0.1624,0,0,-0.1963,-0.1937,-0.1926,-0.1887,-0.1866,-0.1845,-0.1833,-0.1811,-0.1795,-0.1771,-0.1746,-0.1728,-0.1698,-0.1674,-0.1663,-0.1659,-0.1633,-0.1636,-0.1637,-0.1635,-0.1622,-0.1622,-0.1621,-0.1624,-0.1624,-0.1624,0,0,-0.1962,-0.194,-0.1922,-0.1902,-0.187,-0.1851,-0.1847,-0.1812,-0.1799,-0.1773,-0.1754,-0.1736,-0.1696,-0.1676,-0.1661,-0.1652,-0.1639,-0.1646,-0.165,-0.1638,-0.1637,-0.1637,-0.1634,-0.1633,-0.1644,-0.1644,-0.1644,0,-0.1972,-0.1939,-0.1915,-0.1894,-0.1877,-0.1855,-0.1837,-0.1818,-0.1781,-0.1771,-0.1768,-0.1718,-0.1697,-0.1668,-0.1666,-0.1654,-0.1649,-0.1649,-0.1639,-0.1639,-0.1638,-0.1635,-0.1634,-0.1645,-0.1645,-0.1645,-0.1645,0,-0.1953,-0.1931,-0.192,-0.1885,-0.1867,-0.1848,-0.1821,-0.1806,-0.1792,-0.1773,-0.1747,-0.1721,-0.1692,-0.1684,-0.167,-0.1654,-0.1652,-0.1645,-0.1639,-0.1639,-0.1636,-0.1634,-0.1647,-0.1646,-0.1646,-0.1646,0,0,-0.1965,-0.1916,-0.1913,-0.1897,-0.1861,-0.1843,-0.1824,-0.1795,-0.1783,-0.1759,-0.1741,-0.1709,-0.1702,-0.1684,-0.1668,-0.1657,-0.1652,-0.1651,-0.165,-0.1652,-0.1632,-0.1638,-0.1637,-0.1644,-0.1643,-0.1643,-0.1635,0,-0.1958,-0.1921,-0.1898,-0.187,-0.185,-0.1828,-0.1811,-0.1788,-0.1769,-0.175,-0.173,-0.1707,-0.1699,-0.1688,-0.1677,-0.1655,-0.1648,-0.1656,-0.1627,-0.1627,-0.1635,-0.1635,-0.1641,-0.1634,-0.1633,-0.1633,-0.1633,0,-0.1945,-0.1921,-0.1891,-0.1858,-0.1848,-0.1833,-0.1805,-0.1786,-0.1759,-0.1747,-0.1728,-0.1712,-0.169,-0.1687,-0.1657,-0.1663,-0.165,-0.1638,-0.1637,-0.1633,-0.1629,-0.1631,-0.1631,-0.163,-0.163,-0.163,-0.1631,0,-0.1956,-0.1916,-0.1893,-0.188,-0.1841,-0.1831,-0.1814,-0.1787,-0.1772,-0.1748,-0.1737,-0.1712,-0.1697,-0.1678,-0.1655,-0.1655,-0.1627,-0.1622,-0.1617,-0.1617,-0.1611,-0.1612,-0.1609,-0.1604,-0.1604,-0.1604,-0.1604,0,-0.1951,-0.1933,-0.1898,-0.1884,-0.1863,-0.1838,-0.1819,-0.1801,-0.1777,-0.1759,-0.1739,-0.1723,-0.1694,-0.1674,-0.1657,-0.1635,-0.1628,-0.1618,-0.1613,-0.1619,-0.1621,-0.161,-0.161,-0.1604,-0.1604,-0.1604,-0.1604,0,-0.196,-0.1936,-0.1909,-0.1874,-0.1865,-0.1852,-0.1822,-0.1807,-0.1789,-0.1766,-0.1759,-0.173,-0.1706,-0.1681,-0.1648,-0.1636,-0.1615,-0.1609,-0.1624,-0.1621,-0.1617,-0.1618,-0.1608,-0.1605,-0.1602,-0.1602,-0.1602,0,-0.1958,-0.1944,-0.1908,-0.1894,-0.1878,-0.1856,-0.1841,-0.1815,-0.18,-0.1768,-0.1758,-0.1732,-0.171,-0.1673,-0.1648,-0.1623,-0.1616,-0.1614,-0.1612,-0.1619,-0.1616,-0.1617,-0.1615,-0.1615,-0.1615,-0.1615,-0.1616,0,-0.1957,-0.1946,-0.1923,-0.1897,-0.1879,-0.1857,-0.1834,-0.1824,-0.1795,-0.1779,-0.1753,-0.1736,-0.1703,-0.1678,-0.165,-0.1633,-0.1619,-0.1616,-0.1614,-0.162,-0.1629,-0.1624,-0.1626,-0.1617,-0.1617,-0.1616,-0.1616,-0.1616,-0.196,-0.1947,-0.1919,-0.1895,-0.1876,-0.1855,-0.184,-0.1819,-0.1798,-0.1769,-0.1755,-0.173,-0.1704,-0.1665,-0.1649,-0.1629,-0.1625,-0.1621,-0.162,-0.162,-0.1621,-0.1633,-0.1624,-0.1624,-0.1624,-0.1623,-0.1623,0,-0.1958,-0.194,-0.1918,-0.1887,-0.1868,-0.1857,-0.1831,-0.1817,-0.1795,-0.1771,-0.175,-0.1722,-0.1697,-0.1671,-0.1645,-0.1634,-0.1627,-0.1628,-0.1629,-0.1625,-0.1626,-0.1631,-0.1634,-0.1634,-0.1634,-0.1634,-0.1634,-0.1634,-0.1955,-0.1932,-0.1917,-0.1884,-0.1866,-0.1841,-0.1827,-0.1808,-0.179,-0.1758,-0.1738,-0.1721,-0.1697,-0.1669,-0.1646,-0.1639,-0.1631,-0.1633,-0.1625,-0.1626,-0.1625,-0.1624,-0.1629,-0.1632,-0.1632,-0.1625,-0.1625,-0.1625]},{"header":{"parameterUnit":"m.s-1","parameterCategory":1,"la1":30.2991,"la2":30.254,"lo1":-89.0895,"lo2":-89.0444,"dy":0.0017,"dx":0.0017,"nx":28,"ny":28,"refTime":"2024-07-02T03:00:00:Z","depth":0,"parameterNumber":3,"parameterNumberName":"V-component_of_WINDS"},"data":[0,0,0,0,0,0,0,0,0,0,0,0,0,0,0,0,0,0,0,0,0,0,0,0,0,0,0,0,0,0,0,0,0,0,0,0,0,0,0,0,0,0,0,0,0,0,0,0,0,0,0,0,0,0,0,0,0,0,3.9151,3.9151,0,3.9137,3.9137,3.9137,3.9068,3.9066,3.9065,3.9063,3.905,3.9051,3.9052,0,0,0,0,0,0,0,0,0,0,0,0,0,3.9118,3.9119,3.9151,3.9151,3.915,3.9137,3.9137,3.9137,3.9068,3.9066,3.9064,3.9063,3.905,3.9051,3.9053,0,0,0,0,0,0,0,0,0,0,0,0,0,3.9121,3.912,3.9151,3.9115,3.9111,3.9137,3.9137,3.9137,3.9069,3.9066,3.9064,3.9062,3.9049,3.9051,3.9053,3.9112,0,0,3.9058,3.9059,0,0,0,0,0,0,0,0,3.9121,3.9123,3.912,3.9117,3.9113,3.9102,3.912,3.9129,3.9069,3.9085,3.9063,3.906,3.9069,3.9069,3.9072,3.9112,3.9111,3.9058,3.9059,3.906,3.9061,0,0,0,0,0,0,0,3.9121,3.9123,3.9145,3.912,3.9116,3.9099,3.9097,3.9122,3.9091,3.9083,3.9078,3.9078,3.9067,3.9071,3.9071,3.9111,3.9058,3.906,3.9061,3.9061,3.9198,3.92,0,0,0,0,0,0,3.9126,3.9123,3.9146,3.9145,3.9111,3.9102,3.9099,3.9108,3.9091,3.9086,3.908,3.9075,3.9069,3.9069,3.9071,3.9138,3.906,3.9062,3.9063,3.9195,3.9199,3.9201,0,0,0,0,0,0,3.9125,3.9129,3.9146,3.9133,3.9134,3.9105,3.9115,3.9109,3.9112,3.9088,3.9082,3.9089,3.9067,3.9068,3.9102,3.9137,3.9062,3.9064,3.9192,3.9196,3.92,3.9274,0,0,0,0,0,0,3.9125,3.9129,3.9151,3.9134,3.9135,3.9178,3.9117,3.9111,3.9115,3.9109,3.9095,3.909,3.9065,3.91,3.9104,3.9138,3.9065,3.9189,3.9194,3.9199,3.9269,3.928,3.929,0,0,0,0,0,3.9124,3.9173,3.9152,3.9156,3.9162,3.918,3.9181,3.915,3.9119,3.9141,3.9125,3.9091,3.9133,3.9104,3.9108,3.9143,3.9187,3.9193,3.9198,3.9264,3.9278,3.929,0,0,0,0,0,0,3.9195,3.917,3.9147,3.9192,3.9189,3.9169,3.9195,3.9167,3.9173,3.9166,3.9128,3.9126,3.9165,3.9158,3.9126,3.9199,3.9154,3.9161,3.9202,3.9216,3.9226,3.9227,3.9067,0,0,0,0,0,3.9216,3.9233,3.921,3.9252,3.9252,3.9224,3.9231,3.9208,3.9203,3.9202,3.9188,3.9185,3.9198,3.9207,3.9217,3.9268,3.9263,3.9294,3.9305,3.9314,3.932,3.9345,3.9358,3.922,3.922,3.922,0,0,3.926,3.9248,3.9261,3.9266,3.9261,3.9279,3.9223,3.9245,3.9258,3.9205,3.9236,3.9226,3.9221,3.9263,3.9281,3.9258,3.9357,3.9321,3.9328,3.9329,3.9352,3.9366,3.9377,3.9224,3.9224,3.9223,0,0,3.9348,3.9341,3.9374,3.937,3.9363,3.9345,3.9353,3.9337,3.9329,3.9359,3.9319,3.9335,3.9357,3.9354,3.9356,3.9443,3.9412,3.9448,3.9504,3.9529,3.954,3.9549,3.9579,3.9591,3.9454,3.9454,3.9455,0,3.9402,3.9428,3.9395,3.942,3.9423,3.9375,3.9409,3.9407,3.9404,3.9407,3.9381,3.9408,3.9401,3.9441,3.9463,3.9466,3.9474,3.9448,3.9541,3.955,3.9558,3.9586,3.9598,3.9459,3.9458,3.9458,3.9457,0,3.9495,3.9514,3.9542,3.9539,3.9546,3.9575,3.9546,3.9557,3.9534,3.9518,3.955,3.954,3.9546,3.9555,3.9533,3.9593,3.9578,3.9548,3.9501,3.9576,3.9602,3.9613,3.9465,3.9463,3.9462,3.9461,0,0,3.9626,3.9605,3.9616,3.9614,3.9603,3.9616,3.9644,3.965,3.9659,3.9659,3.968,3.9701,3.9672,3.9674,3.9651,3.9674,3.9742,3.964,3.9639,3.9658,3.9806,3.9828,3.9841,3.9722,3.9724,3.9726,3.9806,0,3.9709,3.9753,3.9724,3.9773,3.9789,3.9745,3.9768,3.9764,3.975,3.9762,3.9747,3.9762,3.9723,3.9724,3.9745,3.9729,3.9771,3.9723,3.9741,3.9742,3.9741,3.9855,3.9878,3.9955,3.9816,3.9818,3.9819,0,3.9811,3.9814,3.9864,3.9849,3.9855,3.9877,3.988,3.9892,3.9887,3.9875,3.9878,3.9849,3.9875,3.983,3.9864,3.9833,3.9838,3.9832,3.9834,3.9833,3.9784,3.9856,3.9979,3.999,3.9835,3.9834,3.9833,0,3.9899,3.9917,3.9949,3.9949,3.9933,3.9948,3.9943,3.9935,3.994,3.9944,3.9947,3.9954,3.9957,3.9963,3.9937,3.9907,3.9974,3.9928,3.9965,3.9966,3.9979,3.9979,4.0104,3.9986,3.9986,3.9986,3.9986,0,3.9994,4.0026,3.9988,4.0008,4.0042,4.001,4.0045,4.0034,4.0028,4.0044,4.0008,4.0024,3.999,4.0003,3.9983,4.0014,4.0016,4.0007,4.0001,4.001,4.0011,4.0011,4.0005,3.9989,3.9988,3.9988,3.9987,0,4.0098,4.0074,4.0105,4.0088,4.0084,4.011,4.0095,4.0112,4.0097,4.0118,4.0121,4.0097,4.011,4.0086,4.0096,4.0083,4.0126,4.0112,4.0127,4.0122,4.016,4.0156,4.0289,4.0304,4.0179,4.018,4.0181,0,4.0158,4.0182,4.0167,4.0175,4.0171,4.0185,4.019,4.016,4.0167,4.0162,4.018,4.0191,4.0197,4.0221,4.0204,4.0212,4.0198,4.0244,4.0198,4.0206,4.0196,4.0195,4.0196,4.0252,4.0254,4.0255,4.0256,0,4.0268,4.0255,4.0264,4.0269,4.0277,4.0279,4.0279,4.0288,4.0256,4.0266,4.0279,4.0284,4.0295,4.0305,4.0309,4.0303,4.0274,4.0271,4.0279,4.0287,4.0294,4.0289,4.0151,4.0267,4.0266,4.0265,4.0265,4.0264,4.0351,4.037,4.0362,4.0373,4.0369,4.037,4.0385,4.0371,4.0382,4.0387,4.0369,4.0387,4.0381,4.0383,4.038,4.0393,4.0373,4.0386,4.0389,4.0392,4.0397,4.0294,4.0394,4.0394,4.0394,4.0393,4.0393,0,4.0458,4.0451,4.0461,4.0462,4.0471,4.0443,4.0442,4.0451,4.0466,4.0463,4.047,4.0485,4.0496,4.048,4.0487,4.0501,4.0488,4.0504,4.0502,4.0501,4.0416,4.0407,4.0514,4.0514,4.0514,4.0514,4.0514,4.0514,4.0514,4.0543,4.053,4.0557,4.055,4.0566,4.0567,4.0568,4.0565,4.0583,4.0591,4.0581,4.0573,4.058,4.0588,4.0583,4.0587,4.0607,4.0598,4.0519,4.0507,4.0495,4.0487,4.0609,4.0609,4.0681,4.0682,4.0682]}]]